User: anonymous   Login
Location: Rumah Long Bangan
(2.8362°N, 113.7519°E)
Time: 14:43:35
(UTC+00:00)
Language:

Cosmos 2219 - Orbit

View from above orbital plane
View from above orbital plane
View from above satellite
View from above satellite

Ground track
Ground track

The orbit data is extracted from the following two-line orbital elements,

1 22219U 92076A   22023.89509210  .00000328  00000-0  19844-3 0  9995
2 22219  71.0607 284.7055 0018832 335.0003  25.0205 14.13677728505545
Epoch (UTC): 23 January 2022 21:28:55
Eccentricity: 0.0018832
inclination: 71.0607°
perigee height: 833 km
apogee height: 860 km
right ascension of ascending node: 284.7055°
argument of perigee: 335.0003°
revolutions per day: 14.13677728
mean anomaly at epoch: 25.0205°
orbit number at epoch: 50554

The dashed part of the orbit path shows where the satellite is in the earth's shadow,  

DLR